Location: Brookfield Center
(41.2406°N, 80.5579°W)
Time: 02:54:15
(UTC+00:00)

Daily predictions for brighter satellites

Satellite Brightness Start Highest point End
(mag) Time Altitude Azimuth Time Altitude Azimuth Time Altitude Azimuth
Starlink E 4.2 00:00:26 10° W 00:02:58 27° NNW 00:03:13 27° NNW
Starlink J 4.3 00:01:35 10° W 00:04:06 27° NNW 00:04:18 26° NNW
Starlink V 4.3 00:02:43 10° W 00:05:13 26° NNW 00:05:23 26° NNW
Starlink H 4.4 00:03:53 10° W 00:06:23 26° NNW 00:06:29 26° NNW
Starlink F 4.4 00:05:04 10° W 00:07:32 25° NNW 00:07:36 25° NNW
Meteor 2-10 Rocket 3.9 00:02:29 10° N 00:07:34 40° ENE 00:07:43 40° ENE
Starlink G 4.5 00:06:13 10° W 00:08:41 25° NNW 00:08:42 25° NNW
Cosmos-2242 3.8 00:06:02 10° N 00:15:46 - SSE 00:08:49 35° NNE
Cosmos 1626 4.1 00:07:32 10° SW 00:10:48 29° WNW 00:14:05 10° NNW
Cosmos 1269 Rocket 3.9 00:06:59 10° NNW 00:12:15 64° ENE 00:17:03 12° SSE
SL-16 R/B 3.7 00:09:03 10° N 00:11:32 19° NNE 00:11:32 19° NNE
CSL-04 Rocket 3.8 00:08:31 10° S 00:13:58 77° WSW 00:19:30 10° NNW
COSMO-SKYMED 1 4.2 00:10:08 10° N 00:14:04 34° WNW 00:17:58 10° SW
Cosmos 2219 3.0 00:08:50 10° SSW 00:14:26 81° ESE 00:17:28 29° NNE
Cosmos 1953 Rocket 3.7 00:12:33 10° S 00:16:24 52° ESE 00:16:24 52° ESE
Cosmos 2366 rocket 3.9 00:13:23 10° S 00:19:24 58° E 00:24:44 14° NNE
Meteor 2-1 Rocket 4.4 00:15:21 10° NNW 00:20:49 68° W 00:26:17 10° S
Cosmos 1758 Rocket 3.6 00:18:22 10° SSW 00:22:39 73° W 00:25:01 26° N
ATLAS 5 CENTAUR R/B 4.3 00:26:08 10° NW 00:27:56 12° NNW 00:29:49 10° N
Cosmos 2297 Rocket 2.0 00:28:39 10° SSW 00:34:17 82° ESE 00:35:30 57° NE
Cosmos 1980 3.6 00:30:51 10° NNW 00:36:34 88° WSW 00:39:24 31° SSE
Cosmos 1932 4.4 00:32:44 10° SSW 00:39:02 75° ESE 00:40:13 59° ENE
Atlas Centaur 2 4.4 00:37:28 10° S 00:39:42 14° SSE 00:39:42 14° SSE
COSMOS 2428 4.5 00:38:38 10° NW 00:43:38 32° WSW 00:48:36 10° SSW
Cosmos 1727 Rocket 4.5 00:38:40 10° N 00:42:50 42° NNE 00:42:50 42° NNE
Cosmos 724 4.5 00:39:25 10° SW 00:45:24 70° WNW 00:47:02 48° N
Cosmos 2227 Rocket 2.1 00:40:15 10° SSW 00:45:55 89° WNW 00:46:28 74° NNE
Cosmos 2219 Rocket 4.3 00:47:53 10° NW 00:52:27 25° WSW 00:57:00 10° SSW
Ariane Rocket 3.1 00:53:43 66° SW 00:54:11 71° WSW 00:59:17 10° NNW
IRS-1A Rocket 4.3 00:48:49 10° SSE 00:54:39 80° WSW 01:00:26 10° NNW
DELTA 2 R/B (1) 4.1 01:00:14 10° WSW 01:04:41 54° SW 01:04:41 54° SW
ADEOS Rocket 4.2 01:21:39 13° N 01:27:03 44° WNW 01:33:39 10° SW
Cosmos 2237 Rocket 3.9 01:34:14 10° NW 01:38:58 28° WSW 01:39:56 27° WSW
CZ-3 R/B 4.5 08:26:12 45° S 08:27:47 45° S 08:39:02 10° ESE
USA 215 3.9 09:20:16 10° ESE 09:26:03 47° NE 09:26:03 47° NE
Cosmos 2297 Rocket 3.5 09:29:07 36° E 09:29:07 36° E 09:33:23 10° SE
Cosmos 2227 Rocket 3.2 09:40:07 43° ENE 09:40:07 43° ENE 09:45:12 10° SE
Lacrosse 5 rocket 4.1 09:57:51 13° NNE 09:57:51 13° NNE 09:58:30 10° NNE
Cosmos 1656 4.1 10:00:16 52° NE 10:00:16 52° NE 10:04:27 10° NNE
Cosmos 1626 4.5 10:04:33 21° ESE 10:04:33 21° ESE 10:06:13 10° SE
Nadezhda 1 Rocket 4.5 10:08:15 10° S 10:14:11 57° E 10:20:07 10° NNE
SKYMED 2 4.2 10:16:23 10° SSE 10:20:36 54° ENE 10:21:31 45° NNE
Cosmos 2344 3.5 10:15:23 19° SSW 10:21:10 81° ESE 10:29:06 10° NE
Okean O Rocket 3.7 10:22:01 10° NE 10:25:52 28° E 10:29:41 10° SSE
Meteor 1-24 Rocket 3.6 10:26:53 65° WNW 10:27:23 69° W 10:33:13 10° S
Meteor 2-15 Rocket 4.3 10:26:51 58° WSW 10:27:33 63° W 10:33:40 10° N
Cosmos 1980 Rocket 3.5 10:23:12 10° S 10:28:26 39° ESE 10:33:40 10° NE
Cosmos 2184 Rocket 3.8 10:29:40 10° NNW 10:35:52 72° W 10:42:03 10° S
Cosmos 1697 Rocket 2.6 10:31:55 10° SSW 10:37:32 87° ESE 10:43:11 10° NNE
FENGYUN 3A 3.9 10:32:59 10° NNE 10:38:23 71° ESE 10:43:46 10° S
Cosmos 1626 Rocket 3.3 10:38:35 81° WSW 10:38:35 81° WSW 10:42:54 10° S
Meteor 1-22 Rocket 4.5 10:40:30 46° WSW 10:41:24 50° WNW 10:47:20 10° N
Cosmos 1470 3.4 10:38:50 10° S 10:43:59 44° N 10:46:48 10° N
Cosmos 2154 Rocket 4.0 10:37:16 10° N 10:43:30 83° E 10:49:42 10° S
NOSS 2-2 (C) 3.1 10:50:12 53° SSW 10:50:58 81° ESE 10:54:51 10° NE
Cosmos 2219 4.1 10:53:51 29° WSW 10:53:51 29° WSW 10:57:46 10° SSW
Cosmos 2082 3.6 10:54:46 24° NNW 10:58:18 74° WSW 11:03:58 10° SSE
CZ-4B DEB 4.1 10:53:32 10° NNE 10:59:07 84° WNW 11:04:39 10° SSW
Cosmos 1610 Rocket 4.4 10:55:07 10° NNW 11:01:19 68° W 11:07:34 10° S
NOSS 2-2 (E) 3.1 11:01:47 55° W 11:02:14 60° NW 11:06:12 10° NNE
BREEZE-M DEB (TANK) 3.0 11:02:52 39° NW 11:03:48 47° N 11:12:09 10° ENE
ATLAS 3B R/B 4.3 11:00:39 10° NNW 11:06:11 26° NE 11:11:48 10° E
EXPRESS MD2 3.8 11:08:43 29° N 11:08:43 29° N 11:10:30 10° NE
Cosmos 2074 Rocket 4.4 11:02:34 10° NNW 11:08:15 38° W 11:13:54 10° SSW
COSMO-SKYMED 1 2.9 11:04:36 10° S 11:08:44 43° W 11:10:10 32° NW
USA 215 3.4 11:02:57 10° SSE 11:09:21 57° SW 11:13:25 23° WNW
ALOS 2.3 11:05:27 10° N 11:09:59 52° WNW 11:14:31 10° SSW
Cosmos 2297 Rocket 2.9 11:10:59 28° W 11:12:01 30° WSW 11:16:51 10° SSW
Abrixas rocket 3.8 11:12:14 20° N 11:12:24 20° N 11:14:45 10° NE
NOSS 3-2 (A) 4.3 11:05:33 12° NNW 11:12:45 69° NE 11:21:10 10° SE
Cosmos 773 Rocket 4.1 11:09:25 10° SW 11:14:33 50° WNW 11:19:43 10° N
Cosmos 1606 Rocket 3.8 11:10:16 10° S 11:14:41 71° E 11:19:07 10° NNE
SL-4 R/B 3.1 11:13:47 21° NNW 11:15:12 27° NNE 11:18:12 10° E
Cosmos 1295 Rocket 4.4 11:09:33 10° N 11:15:46 74° W 11:21:52 10° S
STARLINK-48 3.7 11:15:22 36° W 11:16:30 48° NNW 11:20:17 10° NE
Cosmos 2360 4.1 11:11:22 10° SSW 11:17:03 69° WNW 11:22:48 10° NNE
Cosmos 1726 Rocket 4.2 11:13:35 10° S 11:17:58 60° E 11:22:21 10° NNE
STARLINK-80 4.2 11:19:55 30° NW 11:20:40 33° NNW 11:24:09 10° NE
Cosmos 962 Rocket 4.4 11:17:14 10° N 11:23:30 78° W 11:29:48 10° S
Cosmos 2227 Rocket 3.1 11:22:00 23° WNW 11:23:38 27° WSW 11:28:16 10° SSW
STARLINK-69 4.4 11:20:32 10° SSW 11:24:26 50° SE 11:28:20 10° ENE
Cosmos 923 Rocket 4.4 11:22:19 10° S 11:27:30 68° ESE 11:32:45 10° NNE
COSMOS 2455 2.8 11:21:35 10° SSW 11:27:36 85° WNW 11:33:40 10° NNE
STARLINK-45 4.2 11:23:53 10° SW 11:27:49 55° SE 11:31:46 10° ENE
STARLINK-70 4.3 11:25:22 10° SW 11:29:17 54° SE 11:33:13 10° ENE
STARLINK-76 4.3 11:26:59 10° SSW 11:30:54 53° SE 11:34:50 10° ENE
STARLINK 4.2 11:28:39 10° SW 11:32:35 55° SE 11:36:31 10° ENE
Cosmos 2263 Rocket 3.2 11:28:16 10° NNW 11:33:40 45° ENE 11:39:04 10° SE
CENTAUR R/B 3.8 11:26:08 10° NNW 11:34:00 54° NE 11:42:31 10° SE
STARLINK-32 4.2 11:30:14 10° SW 11:34:10 57° SE 11:38:08 10° ENE
Lacrosse 5 rocket 3.6 11:33:30 11° NNW 11:34:50 12° NNW 11:36:47 10° NNE
ATLAS 2AS CENTAUR R/B 3.3 11:27:53 10° SSW 11:35:46 77° ESE 11:43:48 10° NE
STARLINK-40 4.1 11:31:55 10° SW 11:35:52 59° SE 11:39:49 10° ENE
Cosmos 972 Rocket 4.3 11:29:46 10° NNW 11:36:12 84° WSW 11:41:51 10° SSE
Cosmos 2278 4.0 11:31:49 10° SW 11:37:14 43° WNW 11:42:41 10° NNE
STARLINK-44 4.1 11:33:32 10° SW 11:37:30 61° SE 11:41:29 10° ENE
H-2A R/B 2.9 11:33:39 10° NNE 11:37:35 79° ESE 11:41:28 10° S
Cosmos 2181 Rocket 3.9 11:31:35 10° S 11:37:44 81° W 11:44:02 10° N
Cosmos 1626 4.1 11:39:11 13° WSW 11:39:11 13° WSW 11:40:02 10° WSW
USA 32 4.0 11:32:45 10° N 11:37:59 74° W 11:43:12 10° S
STARLINK-37 3.9 11:35:18 10° SW 11:39:16 67° SE 11:43:17 10° ENE
STARLINK-36 3.9 11:36:50 10° SW 11:40:49 66° SE 11:44:48 10° ENE
ADEOS Rocket 2.7 11:36:16 10° SSE 11:41:47 88° WSW 11:47:21 10° NNW
STARLINK-68 3.7 11:38:38 10° SW 11:42:38 75° SE 11:46:40 10° NE
Cosmos 2341 Rocket 4.0 11:37:34 10° NNW 11:43:43 59° W 11:49:47 10° S
Cosmos 1538 Rocket 4.5 11:38:46 10° SW 11:43:46 39° WNW 11:48:45 10° N
STARLINK-63 3.7 11:40:12 10° SW 11:44:12 74° SE 11:48:13 10° NE
STARLINK-35 3.8 11:41:46 10° SW 11:45:46 73° SE 11:49:47 10° NE
Cosmos 1953 3.2 11:42:28 10° SW 11:45:59 29° WNW 11:49:33 10° NNW
STARLINK-51 3.7 11:43:24 10° SW 11:47:24 76° SE 11:51:25 10° NE
USA 238 DEB 3.9 11:40:13 10° NW 11:47:26 74° WSW 11:54:50 10° SSE
USA 238 3.9 11:40:19 10° NW 11:47:32 75° WSW 11:54:58 10° SSE
Cosmos 1908 3.2 11:44:35 10° S 11:48:29 89° ESE 11:52:26 10° N
STARLINK-42 3.5 11:44:51 10° SW 11:48:41 82° SE 11:52:33 10° NE
STARLINK-64 3.5 11:45:14 10° SW 11:49:04 80° SE 11:52:55 10° NE
STARLINK-30 3.7 11:45:04 10° SW 11:49:04 78° SE 11:53:05 10° NE
STARLINK-67 4.4 11:48:55 14° WSW 11:49:55 17° SW 11:51:46 10° S
NOSS 2 (A) 3.8 11:48:34 15° NW 11:50:25 80° SW 11:52:45 10° SSE
Cosmos 1703 3.2 11:46:38 10° N 11:50:37 88° W 11:54:32 10° S
STARLINK-72 3.6 11:46:42 10° SW 11:50:44 81° SE 11:54:45 10° NE
SL-16 R/B 3.0 11:46:17 10° S 11:51:48 57° ESE 11:57:22 10° NNE
STARLINK-50 3.6 11:48:21 10° SW 11:52:22 83° SE 11:56:24 10° NE
STARLINK-59 3.5 11:50:05 10° SW 11:54:06 89° SSE 11:58:09 10° NE
Cosmos 2228 3.3 11:51:22 10° SSW 11:55:34 44° WNW 11:59:48 10° N
Okean-O 3.8 11:51:18 10° NNE 11:55:36 47° E 11:59:52 10° S
STARLINK-56 3.5 11:51:37 10° SW 11:55:38 88° SE 11:59:41 10° NE
STARLINK-33 3.2 11:52:23 10° SW 11:56:03 83° NW 11:59:45 10° NE
